Weather Roundup
Issued by NWS Chicago, IL

Home | Current Version | Previous Version | Graphics & Text | Print | Product List | Glossary On
Versions: 1 2 3 4 5 6 7 8 9 10 11 12 13 14 15 16 17 18 19 20 21 22 23 24 25 26 27 28 29 30 31 32 33 34 35 36 37 38 39 40 41 42 43 44 45 46 47 48 49 50
000
NZUS59 KLOT 290706
HRRLOT

CHICAGO AREA WEATHER ROUNDUP
NATIONAL WEATHER SERVICE CHICAGO/ROMEOVILLE IL
100 AM CST THU JAN 29 2015

NOTE: "FAIR" INDICATES FEW OR NO CLOUDS BELOW 12,000 FEET WITH NO
SIGNIFICANT WEATHER AND/OR OBSTRUCTIONS TO VISIBILITY.

* THESE STATIONS ARE NOT UNDER NWS QUALITY CONTROL. THEY ALSO MAY NOT
  REPORT WEATHER SUCH AS PRECIPITATION OR FOG.

ILZ005-006-012>014-019>023-290800-
NORTHEAST ILLINOIS

CITY           SKY/WX    TMP DP  RH WIND       PRES   REMARKS
OHARE          CLOUDY    34  26  72 S12       29.77F WCI  25
MIDWAY         CLOUDY    37  26  64 S13       29.79F
AURORA         MOCLDY    34  26  72 S15       29.75F WCI  24
LANSING*       CLOUDY    34  25  69 S15       29.81F WCI  24
JOLIET*        CLOUDY    35  26  71 S8G16     29.78F WCI  28
WAUKEGAN       CLOUDY    34  24  67 S9        29.77F WCI  27
DUPAGE AIRPORT CLOUDY    35  26  69 S14       29.75F WCI  26
WHEELING       CLOUDY    34  25  69 S10       29.79F WCI  26
KANKAKEE*      MOCLDY    37  28  70 S14G21    29.79F
MORRIS*        CLOUDY    35  30  83 SE9       29.75F WCI  27
LEWIS AIRPORT* CLOUDY    34  26  71 S15       29.77F WCI  25
NORTHERLY IS     N/A     35  25  67 S10         N/A  WCI  27
$$

WIZ051-052-058>065-066-070>072-290800-
SOUTHEAST WISCONSIN

CITY           SKY/WX    TMP DP  RH WIND       PRES   REMARKS
MILWAUKEE      CLOUDY    33  24  69 S8        29.78F WCI  26
KENOSHA*       CLOUDY    35  24  64 S9        29.78F WCI  28
RACINE*        CLOUDY    34  25  69 S12       29.80F WCI  25
BURLINGTON     CLOUDY    33  25  72 S6        29.76F WCI  27
WAUKESHA       CLOUDY    30  25  80 SE3       29.77F
WEST BEND      MIX PCPN  32  23  69 CALM      29.78F
$$

INZ001>003-010>013-019-020-290800-
NORTHWEST INDIANA

CITY           SKY/WX    TMP DP  RH WIND       PRES   REMARKS
GARY*          CLOUDY    36  19  50 S12G17    29.80F
MICHIGAN CITY* NOT AVBL
RENSSELAER*    NOT AVBL
VALPARAISO     CLOUDY    33  22  63 S14       29.83F WCI  23
$$

LMZ740>746-290800-
SOUTHERN LAKE MICHIGAN

STATION/POSITION TIME  SKY/WX   TEMP WIND        PRES    VSBY
                                AIR  DIR/SP/G
                 (UTC)          (F)  (DEG/KT/KT) (MB)    (MI)
HARRISON CRIB    0700            34  170/ 20/ 22   N/A
BURNHAM HARBOR   0700            35  160/  8/ 14   N/A
CALUMET HARBOR   0700            35  150/ 12/ 18   N/A
BURNS HARBOR     NOT AVBL
MICHIGAN CITY    0700            35  140/ 18/ 25   N/A
$$

ABBREVIATIONS USED IN REMARKS
   TC - TEMPERATURE IN CELSIUS
  WCI - WIND CHILL INDEX
   HX - HEAT INDEX
  VSB - VISIBILITY
$$



USA.gov is the U.S. government's official web portal to all federal, state and local government web resources and services.